Torna al catalogo

NOAA 16 DEB

AttivoPO
NORAD 41707·DEBRIS·🇺🇸 United States

Lanciato Sep 21, 2000 da Vandenberg Space Force Base

Loading…

Prossimi Passaggi (prossime 24 ore)

TLE

AggiornatoSource: Space-Track

Epoca: Sep 14, 2026, 06:29 UTC

1 41707U 00055PM  26257.27041746  .00005376  00000-0  12946-2 0  9997
2 41707  98.8501  53.4236 0021185 213.8991 146.0851 14.53577201541881

Traccia NOAA 16 DEB in tempo reale con AllMySat

Download on the App Store